Weather in Ashap

Russia / Perm Krai     57°07′03″N   56°31′26″E
temp.,
°C
wind,
m/s
gust,
m/s
humid.,
%
clouds,
%
prec.,
mm/h
press.,
hPa
HPBL,
m
25 february, thu
thu2523:00−25n4109554 0.0 1030203
02:00−27n23992 0.0 103021
05:00−29nnw12992 0.0 103119
08:00−29w11982 0.0 103119
11:00−22ssw22871 0.0 1031220
14:00−17sw23810 0.0 1030519
17:00−18ssw358835 0.0 1029451
20:00−24ssw339720 0.0 102941
26 february, fri
fri2623:00−27s239710 0.0 102941
02:00−28s23980 0.0 102830
05:00−28sse23950 0.0 102729
08:00−29sse23951 0.0 102621
11:00−22s369219 0.0 1025289
14:00−16sse358890 0.0 1023516
17:00−14sse368795 0.0 1022638
20:00−19sse239794 0.0 102028
27 february, sat
sat2723:00−20se239694 0.0 101936
02:00−21se339132 0.0 101659
05:00−21se369546 0.0 1014105
08:00−20ese399498 0.0 1011211
11:00−16ese588599 0.0 1009335
14:00−13ese51094100 0.4 1007485
17:00−12ese5993100 1.2 1006581
20:00−15e51095100 0.4 1007410
28 february, sun
sun2823:00−17e4995100 0.7 1007379
02:00−17ene4996100 0.2 1006351
05:00−16ene4895100 0.3 1007334
08:00−16ene4895100 0.2 1006320
11:00−15ene5894100 0.5 1007381
14:00−12ene4793100 0.3 1007409
17:00−11ne4793100 0.6 1008451
20:00−13ne4895100 0.4 1010330
1 march, mon
mon123:00−15ne4895100 0.7 1012335
02:00−16ne4896100 0.3 1013311
05:00−17ne4896100 0.6 1014296
08:00−18nne489699 0.1 1016291
11:00−17nne479599 0.2 1016320
14:00−14nne469398 0.0 1017341
17:00−13n359195 0.0 1017357
20:00−18nw119920 0.0 101720